This is the latest recevied weather packets stored in our database for station/object W5CMS-13. If no packets are shown the sender has not sent any weather packets the latest 10 day(s).
| Time | Temp. | Humidity | Pressure | Rain* | Wind** | Luminosity | Snow |
|---|---|---|---|---|---|---|---|
| 1777243817 | 28.89° C | 74% | 1004.3 hPa | 0 mm | - | - | - |
| 1777243218 | 28.89° C | 73% | 1004.3 hPa | 0 mm | - | - | - |
| 1777242617 | 28.89° C | 74% | 1004.4 hPa | 0 mm | - | - | - |
| 1777242017 | 28.89° C | 74% | 1004.5 hPa | 0 mm | - | - | - |
| 1777241417 | 28.89° C | 74% | 1004.6 hPa | 0 mm | - | - | - |
| 1777240817 | 28.89° C | 73% | 1004.7 hPa | 0 mm | - | - | - |
| 1777240217 | 28.89° C | 73% | 1004.9 hPa | 0 mm | - | - | - |
| 1777239617 | 28.89° C | 72% | 1004.9 hPa | 0 mm | - | - | - |
| 1777239017 | 29.44° C | 72% | 1005.1 hPa | 0 mm | - | - | - |
| 1777238417 | 28.89° C | 72% | 1005.2 hPa | 0 mm | - | - | - |
| 1777237817 | 28.33° C | 73% | 1005.3 hPa | 0 mm | - | - | - |
| 1777237217 | 28.33° C | 74% | 1005.6 hPa | 0 mm | - | - | - |
| 1777236617 | 28.33° C | 75% | 1005.7 hPa | 0 mm | - | - | - |
| 1777236017 | 28.33° C | 74% | 1005.8 hPa | 0 mm | - | - | - |
| 1777235416 | 28.89° C | 73% | 1005.9 hPa | 0 mm | - | - | - |
| 1777234817 | 28.89° C | 72% | 1006 hPa | 0 mm | - | - | - |
| 1777234217 | 28.89° C | 75% | 1006.1 hPa | 0 mm | - | - | - |
| 1777233617 | 28.89° C | 74% | 1006.1 hPa | 0 mm | - | - | - |
| 1777233017 | 28.33° C | 75% | 1006.1 hPa | 0 mm | - | - | - |
| 1777232417 | 27.78° C | 75% | 1006.2 hPa | 0 mm | - | - | - |
| 1777231817 | 27.78° C | 75% | 1006.4 hPa | 0 mm | - | - | - |
| 1777231217 | 27.78° C | 76% | 1006.5 hPa | 0 mm | - | - | - |
| 1777230617 | 27.78° C | 77% | 1006.6 hPa | 0 mm | - | - | - |
| 1777230017 | 27.78° C | 76% | 1006.8 hPa | 0 mm | - | - | - |
| 1777229417 | 27.22° C | 76% | 1006.9 hPa | 0 mm | - | - | - |
* Rain latest hour (hover to see other rain measurements)
** Current wind speed in m/s (hover to see current wind gust speed)